Le nostre stazioni meteo in Italia

Pubblicità
Il mio iltempo24.it
Dalwhinnie, Gran Bretagna (99005): Temperatura & dewpoint: 22.05.2018 09:00:00 - 28.05.2018 09:00:00 (BST)Dalwhinnie, Gran Bretagna (99005): precipitazioni: 22.05.2018 09:00:00 - 28.05.2018 09:00:00 (BST)
Data & Tempo tt [°C] td [°C] rr [mm]
28.05.2018 09:00:00 - - -
28.05.2018 08:00:00 15,8 10,1 0,0
28.05.2018 07:00:00 12,0 9,1 0,0
28.05.2018 06:00:00 8,0 6,1 0,0
28.05.2018 05:00:00 6,6 4,3 0,0
28.05.2018 04:00:00 7,4 5,2 0,0
28.05.2018 03:00:00 8,1 4,8 0,0
28.05.2018 02:00:00 8,5 4,2 0,0
28.05.2018 01:00:00 8,8 4,3 0,0
28.05.2018 00:00:00 10,7 4,7 0,0
27.05.2018 23:00:00 13,6 4,1 0,0
27.05.2018 22:00:00 18,2 3,5 0,0
27.05.2018 21:00:00 18,2 4,3 0,0
27.05.2018 20:00:00 18,6 4,6 0,0
27.05.2018 19:00:00 19,4 6,0 0,0
27.05.2018 18:00:00 20,8 8,1 0,0
27.05.2018 17:00:00 21,2 8,0 0,0
27.05.2018 16:00:00 22,1 8,9 0,0
27.05.2018 15:00:00 21,8 8,7 0,0
27.05.2018 14:00:00 21,4 9,0 0,0
27.05.2018 13:00:00 21,4 9,9 0,0
27.05.2018 12:00:00 20,8 9,4 0,0
27.05.2018 11:00:00 20,4 9,6 0,0
27.05.2018 10:00:00 19,4 8,3 0,0
27.05.2018 09:00:00 17,0 7,1 0,0
27.05.2018 08:00:00 13,6 5,5 0,0
27.05.2018 07:00:00 13,9 4,7 0,0
27.05.2018 06:00:00 10,1 4,3 0,0
27.05.2018 05:00:00 7,5 3,1 0,0
27.05.2018 04:00:00 10,1 4,1 0,0
27.05.2018 03:00:00 11,7 4,5 0,0
27.05.2018 02:00:00 9,6 4,4 0,0
27.05.2018 01:00:00 12,4 4,7 0,0
27.05.2018 00:00:00 13,3 4,8 0,0
26.05.2018 23:00:00 13,6 4,9 0,0
26.05.2018 22:00:00 14,8 5,9 0,0
26.05.2018 21:00:00 16,2 6,6 0,0
26.05.2018 20:00:00 19,9 6,5 0,0
26.05.2018 19:00:00 20,5 6,8 0,0
26.05.2018 18:00:00 21,1 6,3 0,0
26.05.2018 17:00:00 21,5 7,2 0,0
26.05.2018 16:00:00 22,7 6,5 0,0
26.05.2018 15:00:00 22,5 6,8 0,0
26.05.2018 14:00:00 21,7 6,3 0,0
26.05.2018 13:00:00 18,9 9,8 0,0
26.05.2018 12:00:00 16,7 9,8 0,0
26.05.2018 11:00:00 14,1 8,8 0,0
26.05.2018 10:00:00 11,1 8,2 0,0
26.05.2018 09:00:00 8,4 6,8 0,0
26.05.2018 08:00:00 7,6 6,5 0,0
26.05.2018 07:00:00 6,8 6,2 -
26.05.2018 06:00:00 6,6 6,1 0,0
26.05.2018 05:00:00 6,7 6,0 0,0
26.05.2018 04:00:00 6,8 6,0 0,0
26.05.2018 03:00:00 6,7 5,9 0,0
26.05.2018 02:00:00 6,2 5,5 0,0
26.05.2018 01:00:00 7,0 5,2 0,0
26.05.2018 00:00:00 7,4 4,8 0,0
25.05.2018 23:00:00 9,1 5,2 0,0
25.05.2018 22:00:00 10,6 5,8 0,0
25.05.2018 21:00:00 12,9 6,3 0,0
25.05.2018 20:00:00 15,1 7,2 0,0
25.05.2018 19:00:00 16,7 7,8 0,0
25.05.2018 18:00:00 17,4 8,3 0,0
25.05.2018 17:00:00 18,1 8,6 0,0
25.05.2018 16:00:00 18,2 9,6 0,0
25.05.2018 15:00:00 17,6 9,3 0,0
25.05.2018 14:00:00 16,7 9,6 0,0
25.05.2018 13:00:00 16,3 9,4 0,0
25.05.2018 12:00:00 - - 0,0
25.05.2018 11:00:00 - - 0,0
25.05.2018 10:00:00 - - 0,0
25.05.2018 09:00:00 - - 0,0
25.05.2018 08:00:00 - - 0,0
25.05.2018 07:00:00 - - 0,0
25.05.2018 06:00:00 - - 0,0
25.05.2018 05:00:00 - - 0,0
25.05.2018 04:00:00 - - 0,0
25.05.2018 03:00:00 - - 0,0
25.05.2018 02:00:00 10,1 5,1 0,0
25.05.2018 01:00:00 11,1 5,8 0,0
25.05.2018 00:00:00 12,8 5,8 0,0
24.05.2018 23:00:00 13,2 6,5 0,0
24.05.2018 22:00:00 14,5 6,7 0,0
24.05.2018 21:00:00 15,8 7,0 0,0
24.05.2018 20:00:00 17,7 7,3 0,0
24.05.2018 19:00:00 19,0 4,4 0,0
24.05.2018 18:00:00 19,2 5,0 0,0
24.05.2018 17:00:00 19,7 5,6 0,0
24.05.2018 16:00:00 19,7 5,9 0,0
24.05.2018 15:00:00 19,5 7,3 0,0
24.05.2018 14:00:00 18,8 8,4 0,0
24.05.2018 13:00:00 17,6 7,2 0,0
24.05.2018 12:00:00 16,8 7,6 0,0
24.05.2018 11:00:00 15,3 6,0 0,0
24.05.2018 10:00:00 12,7 7,2 0,0
24.05.2018 09:00:00 9,8 5,9 0,0
24.05.2018 08:00:00 8,4 5,7 0,0
24.05.2018 07:00:00 5,7 5,1 0,0
24.05.2018 06:00:00 5,1 4,5 0,0
24.05.2018 05:00:00 4,5 3,7 0,0
24.05.2018 04:00:00 6,1 5,2 0,0
24.05.2018 03:00:00 6,3 5,8 0,0
24.05.2018 02:00:00 6,8 5,7 0,0
24.05.2018 01:00:00 7,9 6,0 0,0
24.05.2018 00:00:00 9,4 5,9 0,0
23.05.2018 23:00:00 10,7 6,6 0,0
23.05.2018 22:00:00 11,5 7,1 0,0
23.05.2018 21:00:00 13,8 7,4 0,0
23.05.2018 20:00:00 15,8 8,6 0,0
23.05.2018 19:00:00 17,6 9,3 0,0
23.05.2018 18:00:00 18,5 8,9 0,0
23.05.2018 17:00:00 18,4 8,6 0,0
23.05.2018 16:00:00 18,0 8,5 0,0
23.05.2018 15:00:00 17,4 9,2 0,0
23.05.2018 14:00:00 16,1 8,1 0,0
23.05.2018 13:00:00 15,1 7,4 0,0
23.05.2018 12:00:00 13,2 6,2 0,0
23.05.2018 11:00:00 12,3 6,7 0,0
23.05.2018 10:00:00 11,3 6,2 0,0
23.05.2018 09:00:00 10,1 6,4 0,0
23.05.2018 08:00:00 9,5 6,7 0,0
23.05.2018 07:00:00 8,3 6,5 0,0
23.05.2018 06:00:00 7,5 6,2 0,0
23.05.2018 05:00:00 6,8 5,9 0,0
23.05.2018 04:00:00 6,6 5,6 0,0
23.05.2018 03:00:00 6,7 5,6 0,0
23.05.2018 02:00:00 6,9 5,7 0,0
23.05.2018 01:00:00 6,8 5,4 0,0
23.05.2018 00:00:00 7,0 5,4 0,0
22.05.2018 23:00:00 7,1 5,5 0,0
22.05.2018 22:00:00 7,4 5,7 0,0
22.05.2018 21:00:00 7,7 5,8 0,0
22.05.2018 20:00:00 8,4 6,1 0,0
22.05.2018 19:00:00 9,1 6,4 0,0
22.05.2018 18:00:00 9,4 6,5 0,0
22.05.2018 17:00:00 9,6 6,7 0,0
22.05.2018 16:00:00 9,4 6,4 0,0
22.05.2018 15:00:00 9,6 6,3 0,0
22.05.2018 14:00:00 9,1 5,6 0,0
22.05.2018 13:00:00 9,1 6,2 0,0
22.05.2018 12:00:00 8,5 5,9 0,0
22.05.2018 11:00:00 7,5 5,7 0,0
22.05.2018 10:00:00 6,5 5,5 0,0
22.05.2018 09:00:00 5,8 5,1 0,0

tt = Temperatura
td = dewpoint
rr = precipitazioni

Stazioni seguenti

WeatherPro
AMSI
MeteoEarth